Year,Month,Day,Hour,Minute,Value (Times are PST for temperature in C)
2017,06,24,00,00,21.90
2017,06,24,00,01,21.90
2017,06,24,00,02,22.00
2017,06,24,00,03,22.00
2017,06,24,00,04,22.10
2017,06,24,00,05,22.10
2017,06,24,00,06,22.10
2017,06,24,00,07,22.20
2017,06,24,00,08,22.20
2017,06,24,00,09,22.20
2017,06,24,00,10,22.20
2017,06,24,00,11,22.20
2017,06,24,00,12,22.20
2017,06,24,00,13,22.20
2017,06,24,00,14,22.20
2017,06,24,00,15,22.20
2017,06,24,00,16,22.10
2017,06,24,00,17,22.10
2017,06,24,00,18,22.00
2017,06,24,00,19,22.00
2017,06,24,00,20,21.90
2017,06,24,00,21,21.80
2017,06,24,00,22,21.80
2017,06,24,00,23,21.70
2017,06,24,00,24,21.60
2017,06,24,00,25,21.60
2017,06,24,00,26,21.50
2017,06,24,00,27,21.40
2017,06,24,00,28,21.30
2017,06,24,00,29,21.20
2017,06,24,00,30,21.10
2017,06,24,00,31,21.10
2017,06,24,00,32,21.00
2017,06,24,00,33,21.00
2017,06,24,00,34,20.90
2017,06,24,00,35,20.90
2017,06,24,00,36,20.90
2017,06,24,00,37,20.90
2017,06,24,00,38,20.90
2017,06,24,00,39,20.90
2017,06,24,00,40,20.90
2017,06,24,00,41,20.90
2017,06,24,00,42,20.90
2017,06,24,00,43,20.90
2017,06,24,00,44,20.90
2017,06,24,00,45,20.90
2017,06,24,00,46,20.90
2017,06,24,00,47,20.90
2017,06,24,00,48,20.90
2017,06,24,00,49,20.90
2017,06,24,00,50,20.90
2017,06,24,00,51,20.90
2017,06,24,00,52,20.90
2017,06,24,00,53,20.80
2017,06,24,00,54,20.80
2017,06,24,00,55,20.80
2017,06,24,00,56,20.70
2017,06,24,00,57,20.70
2017,06,24,00,58,20.70
2017,06,24,00,59,20.70
2017,06,24,01,00,20.60
2017,06,24,01,01,20.50
2017,06,24,01,02,20.50
2017,06,24,01,03,20.40
2017,06,24,01,04,20.40
2017,06,24,01,05,20.30
2017,06,24,01,06,20.30
2017,06,24,01,07,20.20
2017,06,24,01,08,20.20
2017,06,24,01,09,20.10
2017,06,24,01,10,20.10
2017,06,24,01,11,20.00
2017,06,24,01,12,20.00
2017,06,24,01,13,19.90
2017,06,24,01,14,19.90
2017,06,24,01,15,19.80
2017,06,24,01,16,19.80
2017,06,24,01,17,19.70
2017,06,24,01,18,19.60
2017,06,24,01,19,19.60
2017,06,24,01,20,19.50
2017,06,24,01,21,19.40
2017,06,24,01,22,19.30
2017,06,24,01,23,19.30
2017,06,24,01,24,19.20
2017,06,24,01,25,19.10
2017,06,24,01,26,19.00
2017,06,24,01,27,19.00
2017,06,24,01,28,18.90
2017,06,24,01,29,18.90
2017,06,24,01,30,18.80
2017,06,24,01,31,18.80
2017,06,24,01,32,18.70
2017,06,24,01,33,18.60
2017,06,24,01,34,18.60
2017,06,24,01,35,18.50
2017,06,24,01,36,18.40
2017,06,24,01,37,18.40
2017,06,24,01,38,18.30
2017,06,24,01,39,18.30
2017,06,24,01,40,18.30
2017,06,24,01,41,18.30
2017,06,24,01,42,18.30
2017,06,24,01,43,18.30
2017,06,24,01,44,18.30
2017,06,24,01,45,18.30
2017,06,24,01,46,18.30
2017,06,24,01,47,18.30
2017,06,24,01,48,18.40
2017,06,24,01,49,18.40
2017,06,24,01,50,18.40
2017,06,24,01,51,18.40
2017,06,24,01,52,18.30
2017,06,24,01,53,18.30
2017,06,24,01,54,18.30
2017,06,24,01,55,18.30
2017,06,24,01,56,18.30
2017,06,24,01,57,18.30
2017,06,24,01,58,18.30
2017,06,24,01,59,18.30
2017,06,24,02,00,18.30
2017,06,24,02,01,18.30
2017,06,24,02,02,18.30
2017,06,24,02,03,18.30
2017,06,24,02,04,18.30
2017,06,24,02,05,18.30
2017,06,24,02,06,18.40
2017,06,24,02,07,18.50
2017,06,24,02,08,18.70
2017,06,24,02,09,18.80
2017,06,24,02,10,19.00
2017,06,24,02,11,19.20
2017,06,24,02,12,19.30
2017,06,24,02,13,19.50
2017,06,24,02,14,19.60
2017,06,24,02,15,19.70
2017,06,24,02,16,19.80
2017,06,24,02,17,19.80
2017,06,24,02,18,19.90
2017,06,24,02,19,20.00
2017,06,24,02,20,20.00
2017,06,24,02,21,20.10
2017,06,24,02,22,20.20
2017,06,24,02,23,20.20
2017,06,24,02,24,20.20
2017,06,24,02,25,20.30
2017,06,24,02,26,20.30
2017,06,24,02,27,20.30
2017,06,24,02,28,20.30
2017,06,24,02,29,20.30
2017,06,24,02,30,20.30
2017,06,24,02,31,20.30
2017,06,24,02,32,20.30
2017,06,24,02,33,20.30
2017,06,24,02,34,20.30
2017,06,24,02,35,20.20
2017,06,24,02,36,20.20
2017,06,24,02,37,20.20
2017,06,24,02,38,20.20
2017,06,24,02,39,20.20
2017,06,24,02,40,20.20
2017,06,24,02,41,20.20
2017,06,24,02,42,20.10
2017,06,24,02,43,20.10
2017,06,24,02,44,20.10
2017,06,24,02,45,20.10
2017,06,24,02,46,20.10
2017,06,24,02,47,20.10
2017,06,24,02,48,20.10
2017,06,24,02,49,20.10
2017,06,24,02,50,20.10
2017,06,24,02,51,20.00
2017,06,24,02,52,20.00
2017,06,24,02,53,20.00
2017,06,24,02,54,19.90
2017,06,24,02,55,19.90
2017,06,24,02,56,19.90
2017,06,24,02,57,19.80
2017,06,24,02,58,19.80
2017,06,24,02,59,19.80
2017,06,24,03,00,19.70
2017,06,24,03,01,19.70
2017,06,24,03,02,19.70
2017,06,24,03,03,19.60
2017,06,24,03,04,19.60
2017,06,24,03,05,19.50
2017,06,24,03,06,19.40
2017,06,24,03,07,19.40
2017,06,24,03,08,19.30
2017,06,24,03,09,19.30
2017,06,24,03,10,19.20
2017,06,24,03,11,19.20
2017,06,24,03,12,19.10
2017,06,24,03,13,19.00
2017,06,24,03,14,18.90
2017,06,24,03,15,18.80
2017,06,24,03,16,18.70
2017,06,24,03,17,18.60
2017,06,24,03,18,18.50
2017,06,24,03,19,18.50
2017,06,24,03,20,18.40
2017,06,24,03,21,18.30
2017,06,24,03,22,18.30
2017,06,24,03,23,18.20
2017,06,24,03,24,18.20
2017,06,24,03,25,18.10
2017,06,24,03,26,18.00
2017,06,24,03,27,18.00
2017,06,24,03,28,17.90
2017,06,24,03,29,17.90
2017,06,24,03,30,17.90
2017,06,24,03,31,17.80
2017,06,24,03,32,17.80
2017,06,24,03,33,17.80
2017,06,24,03,34,17.80
2017,06,24,03,35,17.80
2017,06,24,03,36,17.80
2017,06,24,03,37,17.90
2017,06,24,03,38,17.90
2017,06,24,03,39,17.90
2017,06,24,03,40,17.90
2017,06,24,03,41,17.90
2017,06,24,03,42,18.00
2017,06,24,03,43,18.10
2017,06,24,03,44,18.10
2017,06,24,03,45,18.10
2017,06,24,03,46,18.20
2017,06,24,03,47,18.20
2017,06,24,03,48,18.10
2017,06,24,03,49,18.10
2017,06,24,03,50,18.10
2017,06,24,03,51,18.00
2017,06,24,03,52,18.00
2017,06,24,03,53,17.90
2017,06,24,03,54,17.90
2017,06,24,03,55,17.80
2017,06,24,03,56,17.80
2017,06,24,03,57,17.80
2017,06,24,03,58,17.70
2017,06,24,03,59,17.70
2017,06,24,04,00,17.70
2017,06,24,04,01,17.70
2017,06,24,04,02,17.70
2017,06,24,04,03,17.60
2017,06,24,04,04,17.60
2017,06,24,04,05,17.60
2017,06,24,04,06,17.60
2017,06,24,04,07,17.60
2017,06,24,04,08,17.60
2017,06,24,04,09,17.60
2017,06,24,04,10,17.50
2017,06,24,04,11,17.50
2017,06,24,04,12,17.50
2017,06,24,04,13,17.50
2017,06,24,04,14,17.50
2017,06,24,04,15,17.50
2017,06,24,04,16,17.50
2017,06,24,04,17,17.60
2017,06,24,04,18,17.60
2017,06,24,04,19,17.60
2017,06,24,04,20,17.70
2017,06,24,04,21,17.70
2017,06,24,04,22,17.70
2017,06,24,04,23,17.70
2017,06,24,04,24,17.70
2017,06,24,04,25,17.70
2017,06,24,04,26,17.70
2017,06,24,04,27,17.60
2017,06,24,04,28,17.60
2017,06,24,04,29,17.60
2017,06,24,04,30,17.50
2017,06,24,04,31,17.40
2017,06,24,04,32,17.40
2017,06,24,04,33,17.40
2017,06,24,04,34,17.40
2017,06,24,04,35,17.40
2017,06,24,04,36,17.50
2017,06,24,04,37,17.50
2017,06,24,04,38,17.60
2017,06,24,04,39,17.70
2017,06,24,04,40,17.90
2017,06,24,04,41,18.00
2017,06,24,04,42,18.10
2017,06,24,04,43,18.10
2017,06,24,04,44,18.20
2017,06,24,04,45,18.20
2017,06,24,04,46,18.20
2017,06,24,04,47,18.20
2017,06,24,04,48,18.20
2017,06,24,04,49,18.10
2017,06,24,04,50,18.10
2017,06,24,04,51,18.00
2017,06,24,04,52,18.00
2017,06,24,04,53,17.90
2017,06,24,04,54,17.90
2017,06,24,04,55,17.80
2017,06,24,04,56,17.80
2017,06,24,04,57,17.70
2017,06,24,04,58,17.70
2017,06,24,04,59,17.70
2017,06,24,05,00,17.60
2017,06,24,05,01,17.60
2017,06,24,05,02,17.60
2017,06,24,05,03,17.50
2017,06,24,05,04,17.50
2017,06,24,05,05,17.40
2017,06,24,05,06,17.40
2017,06,24,05,07,17.40
2017,06,24,05,08,17.50
2017,06,24,05,09,17.50
2017,06,24,05,10,17.50
2017,06,24,05,11,17.50
2017,06,24,05,12,17.50
2017,06,24,05,13,17.60
2017,06,24,05,14,17.60
2017,06,24,05,15,17.60
2017,06,24,05,16,17.60
2017,06,24,05,17,17.70
2017,06,24,05,18,17.70
2017,06,24,05,19,17.70
2017,06,24,05,20,17.80
2017,06,24,05,21,17.80
2017,06,24,05,22,17.80
2017,06,24,05,23,17.80
2017,06,24,05,24,17.80
2017,06,24,05,25,17.80
2017,06,24,05,26,17.80
2017,06,24,05,27,17.80
2017,06,24,05,28,17.80
2017,06,24,05,29,17.80
2017,06,24,05,30,17.80
2017,06,24,05,31,17.70
2017,06,24,05,32,17.70
2017,06,24,05,33,17.70
2017,06,24,05,34,17.70
2017,06,24,05,35,17.70
2017,06,24,05,36,17.60
2017,06,24,05,37,17.60
2017,06,24,05,38,17.50
2017,06,24,05,39,17.50
2017,06,24,05,40,17.40
2017,06,24,05,41,17.40
2017,06,24,05,42,17.40
2017,06,24,05,43,17.30
2017,06,24,05,44,17.30
2017,06,24,05,45,17.30
2017,06,24,05,46,17.30
2017,06,24,05,47,17.30
2017,06,24,05,48,17.30
2017,06,24,05,49,17.20
2017,06,24,05,50,17.20
2017,06,24,05,51,17.20
2017,06,24,05,52,17.20
2017,06,24,05,53,17.20
2017,06,24,05,54,17.30
2017,06,24,05,55,17.30
2017,06,24,05,56,17.30
2017,06,24,05,57,17.30
2017,06,24,05,58,17.40
2017,06,24,05,59,17.40
2017,06,24,06,00,17.40
2017,06,24,06,01,17.40
2017,06,24,06,02,17.50
2017,06,24,06,03,17.50
2017,06,24,06,04,17.50
2017,06,24,06,05,17.50
2017,06,24,06,06,17.60
2017,06,24,06,07,17.60
2017,06,24,06,08,17.60
2017,06,24,06,09,17.60
2017,06,24,06,10,17.60
2017,06,24,06,11,17.60
2017,06,24,06,12,17.60
2017,06,24,06,13,17.70
2017,06,24,06,14,17.70
2017,06,24,06,15,17.70
2017,06,24,06,16,17.70
2017,06,24,06,17,17.70
2017,06,24,06,18,17.80
2017,06,24,06,19,17.80
2017,06,24,06,20,17.90
2017,06,24,06,21,17.90
2017,06,24,06,22,18.00
2017,06,24,06,23,18.10
2017,06,24,06,24,18.20
2017,06,24,06,25,18.20
2017,06,24,06,26,18.30
2017,06,24,06,27,18.40
2017,06,24,06,28,18.50
2017,06,24,06,29,18.50
2017,06,24,06,30,18.60
2017,06,24,06,31,18.70
2017,06,24,06,32,18.80
2017,06,24,06,33,18.90
2017,06,24,06,34,19.00
2017,06,24,06,35,19.10
2017,06,24,06,36,19.20
2017,06,24,06,37,19.30
2017,06,24,06,38,19.40
2017,06,24,06,39,19.50
2017,06,24,06,40,19.60
2017,06,24,06,41,19.60
2017,06,24,06,42,19.70
2017,06,24,06,43,19.80
2017,06,24,06,44,19.80
2017,06,24,06,45,19.90
2017,06,24,06,46,19.90
2017,06,24,06,47,19.90
2017,06,24,06,48,19.90
2017,06,24,06,49,19.90
2017,06,24,06,50,19.90
2017,06,24,06,51,19.90
2017,06,24,06,52,19.90
2017,06,24,06,53,19.80
2017,06,24,06,54,19.90
2017,06,24,06,55,19.90
2017,06,24,06,56,20.00
2017,06,24,06,57,20.00
2017,06,24,06,58,20.10
2017,06,24,06,59,20.20
2017,06,24,07,00,20.30
2017,06,24,07,01,20.40
2017,06,24,07,02,20.40
2017,06,24,07,03,20.50
2017,06,24,07,04,20.60
2017,06,24,07,05,20.70
2017,06,24,07,06,20.70
2017,06,24,07,07,20.80
2017,06,24,07,08,20.80
2017,06,24,07,09,20.90
2017,06,24,07,10,20.90
2017,06,24,07,11,21.00
2017,06,24,07,12,21.00
2017,06,24,07,13,21.00
2017,06,24,07,14,21.00
2017,06,24,07,15,21.00
2017,06,24,07,16,21.00
2017,06,24,07,17,21.00
2017,06,24,07,18,21.00
2017,06,24,07,19,20.90
2017,06,24,07,20,20.90
2017,06,24,07,21,20.90
2017,06,24,07,22,20.90
2017,06,24,07,23,20.90
2017,06,24,07,24,20.90
2017,06,24,07,25,20.90
2017,06,24,07,26,20.90
2017,06,24,07,27,20.80
2017,06,24,07,28,20.80
2017,06,24,07,29,20.80
2017,06,24,07,30,20.80
2017,06,24,07,31,20.80
2017,06,24,07,32,20.80
2017,06,24,07,33,20.80
2017,06,24,07,34,20.80
2017,06,24,07,35,20.90
2017,06,24,07,36,20.90
2017,06,24,07,37,20.90
2017,06,24,07,38,21.00
2017,06,24,07,39,21.10
2017,06,24,07,40,21.10
2017,06,24,07,41,21.20
2017,06,24,07,42,21.30
2017,06,24,07,43,21.30
2017,06,24,07,44,21.40
2017,06,24,07,45,21.50
2017,06,24,07,46,21.60
2017,06,24,07,47,21.70
2017,06,24,07,48,21.70
2017,06,24,07,49,21.80
2017,06,24,07,50,21.80
2017,06,24,07,51,21.80
2017,06,24,07,52,21.90
2017,06,24,07,53,21.90
2017,06,24,07,54,21.90
2017,06,24,07,55,21.90
2017,06,24,07,56,21.90
2017,06,24,07,57,21.90
2017,06,24,07,58,21.90
2017,06,24,07,59,21.80
2017,06,24,08,00,21.80
2017,06,24,08,01,21.80
2017,06,24,08,02,21.70
2017,06,24,08,03,21.70
2017,06,24,08,04,21.70
2017,06,24,08,05,21.60
2017,06,24,08,06,21.60
2017,06,24,08,07,21.60
2017,06,24,08,08,21.60
2017,06,24,08,09,21.60
2017,06,24,08,10,21.60
2017,06,24,08,11,21.70
2017,06,24,08,12,21.70
2017,06,24,08,13,21.70
2017,06,24,08,14,21.70
2017,06,24,08,15,21.70
2017,06,24,08,16,21.70
2017,06,24,08,17,21.80
2017,06,24,08,18,21.80
2017,06,24,08,19,21.80
2017,06,24,08,20,21.80
2017,06,24,08,21,21.80
2017,06,24,08,22,21.80
2017,06,24,08,23,21.80
2017,06,24,08,24,21.80
2017,06,24,08,25,21.70
2017,06,24,08,26,21.70
2017,06,24,08,27,21.60
2017,06,24,08,28,21.50
2017,06,24,08,29,21.30
2017,06,24,08,30,21.20
2017,06,24,08,31,21.10
2017,06,24,08,32,21.10
2017,06,24,08,33,21.00
2017,06,24,08,34,21.00
2017,06,24,08,35,20.90
2017,06,24,08,36,20.90
2017,06,24,08,37,20.80
2017,06,24,08,38,20.80
2017,06,24,08,39,20.80
2017,06,24,08,40,20.80
2017,06,24,08,41,20.80
2017,06,24,08,42,20.80
2017,06,24,08,43,20.80
2017,06,24,08,44,20.80
2017,06,24,08,45,20.80
2017,06,24,08,46,20.90
2017,06,24,08,47,20.90
2017,06,24,08,48,20.90
2017,06,24,08,49,21.00
2017,06,24,08,50,21.00
2017,06,24,08,51,21.00
2017,06,24,08,52,21.00
2017,06,24,08,53,21.00
2017,06,24,08,54,21.00
2017,06,24,08,55,21.00
2017,06,24,08,56,21.00
2017,06,24,08,57,20.90
2017,06,24,08,58,20.80
2017,06,24,08,59,20.70
2017,06,24,09,00,20.60
2017,06,24,09,01,20.60
2017,06,24,09,02,20.50
2017,06,24,09,03,20.50
2017,06,24,09,04,20.50
2017,06,24,09,05,20.50
2017,06,24,09,06,20.50
2017,06,24,09,07,20.50
2017,06,24,09,08,20.50
2017,06,24,09,09,20.50
2017,06,24,09,10,20.50
2017,06,24,09,11,20.40
2017,06,24,09,12,20.40
2017,06,24,09,13,20.40
2017,06,24,09,14,20.50
2017,06,24,09,15,20.40
2017,06,24,09,16,20.40
2017,06,24,09,17,20.50
2017,06,24,09,18,20.50
2017,06,24,09,19,20.40
2017,06,24,09,20,20.40
2017,06,24,09,21,20.40
2017,06,24,09,22,20.30
2017,06,24,09,23,20.30
2017,06,24,09,24,20.30
2017,06,24,09,25,20.30
2017,06,24,09,26,20.30
2017,06,24,09,27,20.30
2017,06,24,09,28,20.30
2017,06,24,09,29,20.30
2017,06,24,09,30,20.20
2017,06,24,09,31,20.20
2017,06,24,09,32,20.30
2017,06,24,09,33,20.30
2017,06,24,09,34,20.30
2017,06,24,09,35,20.30
2017,06,24,09,36,20.30
2017,06,24,09,37,20.30
2017,06,24,09,38,20.30
2017,06,24,09,39,20.40
2017,06,24,09,40,20.50
2017,06,24,09,41,20.60
2017,06,24,09,42,20.70
2017,06,24,09,43,20.80
2017,06,24,09,44,20.90
2017,06,24,09,45,21.00
2017,06,24,09,46,21.10
2017,06,24,09,47,21.20
2017,06,24,09,48,21.20
2017,06,24,09,49,21.30
2017,06,24,09,50,21.30
2017,06,24,09,51,21.30
2017,06,24,09,52,21.20
2017,06,24,09,53,21.20
2017,06,24,09,54,21.20
2017,06,24,09,55,21.20
2017,06,24,09,56,21.20
2017,06,24,09,57,21.20
2017,06,24,09,58,21.10
2017,06,24,09,59,21.10
2017,06,24,10,00,21.00
2017,06,24,10,01,21.00
2017,06,24,10,02,20.90
2017,06,24,10,03,20.90
2017,06,24,10,04,20.90
2017,06,24,10,05,20.90
2017,06,24,10,06,20.90
2017,06,24,10,07,20.90
2017,06,24,10,08,21.00
2017,06,24,10,09,21.00
2017,06,24,10,10,21.10
2017,06,24,10,11,21.10
2017,06,24,10,12,21.10
2017,06,24,10,13,21.20
2017,06,24,10,14,21.20
2017,06,24,10,15,21.30
2017,06,24,10,16,21.30
2017,06,24,10,17,21.30
2017,06,24,10,18,21.30
2017,06,24,10,19,21.30
2017,06,24,10,20,21.30
2017,06,24,10,21,21.30
2017,06,24,10,22,21.20
2017,06,24,10,23,21.20
2017,06,24,10,24,21.20
2017,06,24,10,25,21.20
2017,06,24,10,26,21.30
2017,06,24,10,27,21.30
2017,06,24,10,28,21.40
2017,06,24,10,29,21.50
2017,06,24,10,30,21.60
2017,06,24,10,31,21.70
2017,06,24,10,32,21.80
2017,06,24,10,33,21.80
2017,06,24,10,34,21.80
2017,06,24,10,35,21.80
2017,06,24,10,36,21.80
2017,06,24,10,37,21.80
2017,06,24,10,38,21.80
2017,06,24,10,39,21.80
2017,06,24,10,40,21.80
2017,06,24,10,41,21.80
2017,06,24,10,42,21.80
2017,06,24,10,43,21.70
2017,06,24,10,44,21.70
2017,06,24,10,45,21.70
2017,06,24,10,46,21.70
2017,06,24,10,47,21.80
2017,06,24,10,48,21.80
2017,06,24,10,49,21.80
2017,06,24,10,50,21.80
2017,06,24,10,51,21.80
2017,06,24,10,52,21.80
2017,06,24,10,53,21.80
2017,06,24,10,54,21.80
2017,06,24,10,55,21.80
2017,06,24,10,56,21.80
2017,06,24,10,57,21.80
2017,06,24,10,58,21.80
2017,06,24,10,59,21.80
2017,06,24,11,00,21.80
2017,06,24,11,01,21.80
2017,06,24,11,02,21.80
2017,06,24,11,03,21.80
2017,06,24,11,04,21.90
2017,06,24,11,05,21.90
2017,06,24,11,06,22.00
2017,06,24,11,07,22.10
2017,06,24,11,08,22.20
2017,06,24,11,09,22.30
2017,06,24,11,10,22.40
2017,06,24,11,11,22.50
2017,06,24,11,12,22.70
2017,06,24,11,13,22.80
2017,06,24,11,14,22.90
2017,06,24,11,15,22.90
2017,06,24,11,16,22.90
2017,06,24,11,17,23.00
2017,06,24,11,18,23.00
2017,06,24,11,19,23.10
2017,06,24,11,20,23.20
2017,06,24,11,21,23.20
2017,06,24,11,22,23.20
2017,06,24,11,23,23.20
2017,06,24,11,24,23.30
2017,06,24,11,25,23.30
2017,06,24,11,26,23.40
2017,06,24,11,27,23.40
2017,06,24,11,28,23.40
2017,06,24,11,29,23.40
2017,06,24,11,30,23.40
2017,06,24,11,31,23.50
2017,06,24,11,32,23.50
2017,06,24,11,33,23.60
2017,06,24,11,34,23.60
2017,06,24,11,35,23.70
2017,06,24,11,36,23.80
2017,06,24,11,37,23.80
2017,06,24,11,38,23.80
2017,06,24,11,39,23.90
2017,06,24,11,40,23.90
2017,06,24,11,41,24.00
2017,06,24,11,42,24.10
2017,06,24,11,43,24.10
2017,06,24,11,44,24.10
2017,06,24,11,45,24.20
2017,06,24,11,46,24.30
2017,06,24,11,47,24.30
2017,06,24,11,48,24.30
2017,06,24,11,49,24.30
2017,06,24,11,50,24.20
2017,06,24,11,51,24.10
2017,06,24,11,52,24.00
2017,06,24,11,53,23.90
2017,06,24,11,54,23.80
2017,06,24,11,55,23.80
2017,06,24,11,56,23.80
2017,06,24,11,57,23.80
2017,06,24,11,58,23.80
2017,06,24,11,59,23.70
2017,06,24,12,00,23.70
2017,06,24,12,01,23.60
2017,06,24,12,02,23.60
2017,06,24,12,03,23.70
2017,06,24,12,04,23.70
2017,06,24,12,05,23.60
2017,06,24,12,06,23.60
2017,06,24,12,07,23.50
2017,06,24,12,08,23.40
2017,06,24,12,09,23.30
2017,06,24,12,10,23.30
2017,06,24,12,11,23.40
2017,06,24,12,12,23.40
2017,06,24,12,13,23.50
2017,06,24,12,14,23.50
2017,06,24,12,15,23.60
2017,06,24,12,16,23.70
2017,06,24,12,17,23.70
2017,06,24,12,18,23.80
2017,06,24,12,19,23.80
2017,06,24,12,20,23.80
2017,06,24,12,21,23.80
2017,06,24,12,22,23.70
2017,06,24,12,23,23.60
2017,06,24,12,24,23.60
2017,06,24,12,25,23.50
2017,06,24,12,26,23.40
2017,06,24,12,27,23.40
2017,06,24,12,28,23.30
2017,06,24,12,29,23.30
2017,06,24,12,30,23.40
2017,06,24,12,31,23.40
2017,06,24,12,32,23.50
2017,06,24,12,33,23.50
2017,06,24,12,34,23.60
2017,06,24,12,35,23.80
2017,06,24,12,36,23.80
2017,06,24,12,37,23.80
2017,06,24,12,38,23.90
2017,06,24,12,39,23.90
2017,06,24,12,40,23.90
2017,06,24,12,41,24.00
2017,06,24,12,42,24.00
2017,06,24,12,43,24.00
2017,06,24,12,44,24.00
2017,06,24,12,45,24.10
2017,06,24,12,46,24.10
2017,06,24,12,47,24.20
2017,06,24,12,48,24.30
2017,06,24,12,49,24.30
2017,06,24,12,50,24.30
2017,06,24,12,51,24.30
2017,06,24,12,52,24.30
2017,06,24,12,53,24.30
2017,06,24,12,54,24.40
2017,06,24,12,55,24.40
2017,06,24,12,56,24.40
2017,06,24,12,57,24.40
2017,06,24,12,58,24.40
2017,06,24,12,59,24.50
2017,06,24,13,00,24.50
2017,06,24,13,01,24.60
2017,06,24,13,02,24.70
2017,06,24,13,03,24.80
2017,06,24,13,04,24.90
2017,06,24,13,05,25.00
2017,06,24,13,06,25.00
2017,06,24,13,07,25.10
2017,06,24,13,08,25.10
2017,06,24,13,09,25.10
2017,06,24,13,10,25.20
2017,06,24,13,11,25.20
2017,06,24,13,12,25.30
2017,06,24,13,13,25.30
2017,06,24,13,14,25.30
2017,06,24,13,15,25.40
2017,06,24,13,16,25.40
2017,06,24,13,17,25.40
2017,06,24,13,18,25.50
2017,06,24,13,19,25.50
2017,06,24,13,20,25.50
2017,06,24,13,21,25.60
2017,06,24,13,22,25.70
2017,06,24,13,23,25.80
2017,06,24,13,24,25.90
2017,06,24,13,25,25.90
2017,06,24,13,26,26.00
2017,06,24,13,27,26.10
2017,06,24,13,28,26.20
2017,06,24,13,29,26.30
2017,06,24,13,30,26.40
2017,06,24,13,31,26.40
2017,06,24,13,32,26.40
2017,06,24,13,33,26.40
2017,06,24,13,34,26.40
2017,06,24,13,35,26.40
2017,06,24,13,36,26.40
2017,06,24,13,37,26.30
2017,06,24,13,38,26.30
2017,06,24,13,39,26.20
2017,06,24,13,40,26.10
2017,06,24,13,41,26.00
2017,06,24,13,42,25.90
2017,06,24,13,43,25.90
2017,06,24,13,44,25.80
2017,06,24,13,45,25.80
2017,06,24,13,46,25.80
2017,06,24,13,47,25.80
2017,06,24,13,48,25.90
2017,06,24,13,49,25.90
2017,06,24,13,50,26.00
2017,06,24,13,51,26.10
2017,06,24,13,52,26.10
2017,06,24,13,53,26.10
2017,06,24,13,54,26.10
2017,06,24,13,55,26.10
2017,06,24,13,56,26.10
2017,06,24,13,57,26.20
2017,06,24,13,58,26.20
2017,06,24,13,59,26.30
2017,06,24,14,00,26.30
2017,06,24,14,01,26.40
2017,06,24,14,02,26.40
2017,06,24,14,03,26.40
2017,06,24,14,04,26.40
2017,06,24,14,05,26.50
2017,06,24,14,06,26.50
2017,06,24,14,07,26.50
2017,06,24,14,08,26.50
2017,06,24,14,09,26.60
2017,06,24,14,10,26.60
2017,06,24,14,11,26.70
2017,06,24,14,12,26.60
2017,06,24,14,13,26.60
2017,06,24,14,14,26.60
2017,06,24,14,15,26.60
2017,06,24,14,16,26.60
2017,06,24,14,17,26.50
2017,06,24,14,18,26.60
2017,06,24,14,19,26.60
2017,06,24,14,20,26.80
2017,06,24,14,21,26.80
2017,06,24,14,22,26.90
2017,06,24,14,23,26.90
2017,06,24,14,24,27.00
2017,06,24,14,25,27.00
2017,06,24,14,26,27.00
2017,06,24,14,27,26.90
2017,06,24,14,28,26.90
2017,06,24,14,29,26.80
2017,06,24,14,30,26.70
2017,06,24,14,31,26.70
2017,06,24,14,32,26.70
2017,06,24,14,33,26.70
2017,06,24,14,34,26.70
2017,06,24,14,35,26.70
2017,06,24,14,36,26.80
2017,06,24,14,37,26.80
2017,06,24,14,38,26.70
2017,06,24,14,39,26.70
2017,06,24,14,40,26.60
2017,06,24,14,41,26.60
2017,06,24,14,42,26.60
2017,06,24,14,43,26.60
2017,06,24,14,44,26.60
2017,06,24,14,45,26.70
2017,06,24,14,46,26.70
2017,06,24,14,47,26.80
2017,06,24,14,48,26.80
2017,06,24,14,49,26.80
2017,06,24,14,50,26.80
2017,06,24,14,51,26.80
2017,06,24,14,52,26.90
2017,06,24,14,53,26.90
2017,06,24,14,54,27.00
2017,06,24,14,55,27.00
2017,06,24,14,56,27.00
2017,06,24,14,57,27.00
2017,06,24,14,58,27.00
2017,06,24,14,59,27.00
2017,06,24,15,00,27.10
2017,06,24,15,01,27.10
2017,06,24,15,02,27.10
2017,06,24,15,03,27.10
2017,06,24,15,04,27.20
2017,06,24,15,05,27.20
2017,06,24,15,06,27.20
2017,06,24,15,07,27.20
2017,06,24,15,08,27.20
2017,06,24,15,09,27.20
2017,06,24,15,10,27.20
2017,06,24,15,11,27.20
2017,06,24,15,12,27.20
2017,06,24,15,13,27.20
2017,06,24,15,14,27.20
2017,06,24,15,15,27.20
2017,06,24,15,16,27.20
2017,06,24,15,17,27.30
2017,06,24,15,18,27.30
2017,06,24,15,19,27.40
2017,06,24,15,20,27.40
2017,06,24,15,21,27.40
2017,06,24,15,22,27.50
2017,06,24,15,23,27.50
2017,06,24,15,24,27.50
2017,06,24,15,25,27.50
2017,06,24,15,26,27.60
2017,06,24,15,27,27.70
2017,06,24,15,28,27.80
2017,06,24,15,29,27.80
2017,06,24,15,30,27.90
2017,06,24,15,31,28.00
2017,06,24,15,32,28.10
2017,06,24,15,33,28.10
2017,06,24,15,34,28.20
2017,06,24,15,35,28.30
2017,06,24,15,36,28.40
2017,06,24,15,37,28.50
2017,06,24,15,38,28.60
2017,06,24,15,39,28.60
2017,06,24,15,40,28.70
2017,06,24,15,41,28.60
2017,06,24,15,42,28.60
2017,06,24,15,43,28.60
2017,06,24,15,44,28.60
2017,06,24,15,45,28.50
2017,06,24,15,46,28.50
2017,06,24,15,47,28.60
2017,06,24,15,48,28.50
2017,06,24,15,49,28.50
2017,06,24,15,50,28.50
2017,06,24,15,51,28.40
2017,06,24,15,52,28.40
2017,06,24,15,53,28.50
2017,06,24,15,54,28.60
2017,06,24,15,55,28.60
2017,06,24,15,56,28.70
2017,06,24,15,57,28.70
2017,06,24,15,58,28.60
2017,06,24,15,59,28.60
2017,06,24,16,00,28.60
2017,06,24,16,01,28.60
2017,06,24,16,02,28.60
2017,06,24,16,03,28.60
2017,06,24,16,04,28.60
2017,06,24,16,05,28.70
2017,06,24,16,06,28.70
2017,06,24,16,07,28.70
2017,06,24,16,08,28.70
2017,06,24,16,09,28.80
2017,06,24,16,10,28.80
2017,06,24,16,11,28.80
2017,06,24,16,12,28.80
2017,06,24,16,13,28.80
2017,06,24,16,14,28.90
2017,06,24,16,15,28.90
2017,06,24,16,16,28.90
2017,06,24,16,17,28.90
2017,06,24,16,18,28.90
2017,06,24,16,19,28.90
2017,06,24,16,20,28.90
2017,06,24,16,21,28.90
2017,06,24,16,22,28.90
2017,06,24,16,23,29.00
2017,06,24,16,24,29.10
2017,06,24,16,25,29.20
2017,06,24,16,26,29.20
2017,06,24,16,27,29.20
2017,06,24,16,28,29.10
2017,06,24,16,29,29.00
2017,06,24,16,30,28.90
2017,06,24,16,31,28.80
2017,06,24,16,32,28.70
2017,06,24,16,33,28.70
2017,06,24,16,34,28.80
2017,06,24,16,35,28.80
2017,06,24,16,36,28.90
2017,06,24,16,37,28.90
2017,06,24,16,38,28.80
2017,06,24,16,39,28.80
2017,06,24,16,40,28.80
2017,06,24,16,41,28.80
2017,06,24,16,42,28.80
2017,06,24,16,43,28.90
2017,06,24,16,44,28.90
2017,06,24,16,45,28.90
2017,06,24,16,46,28.90
2017,06,24,16,47,28.90
2017,06,24,16,48,28.80
2017,06,24,16,49,28.80
2017,06,24,16,50,28.70
2017,06,24,16,51,28.70
2017,06,24,16,52,28.60
2017,06,24,16,53,28.60
2017,06,24,16,54,28.50
2017,06,24,16,55,28.50
2017,06,24,16,56,28.50
2017,06,24,16,57,28.50
2017,06,24,16,58,28.60
2017,06,24,16,59,28.70
2017,06,24,17,00,28.70
2017,06,24,17,01,28.80
2017,06,24,17,02,28.80
2017,06,24,17,03,28.80
2017,06,24,17,04,28.80
2017,06,24,17,05,28.90
2017,06,24,17,06,28.90
2017,06,24,17,07,28.90
2017,06,24,17,08,28.90
2017,06,24,17,09,29.00
2017,06,24,17,10,29.00
2017,06,24,17,11,29.00
2017,06,24,17,12,28.90
2017,06,24,17,13,28.90
2017,06,24,17,14,28.80
2017,06,24,17,15,28.70
2017,06,24,17,16,28.60
2017,06,24,17,17,28.50
2017,06,24,17,18,28.40
2017,06,24,17,19,28.40